KC0AFB Weather Reports


time (UTC)temp
F
wind
direction
speed
knots
gust
knots
rain 1hr
in
rain 24hr
in
rain mn
in
humidity
%
barometer
mb
20260507144227 44 231 1.7 1.7 0.00 0.00 0.00 52 1012.5
20260507143723 44 301 2.6 2.6 0.00 0.00 0.00 53 1012.5
20260507143221 44 174 0.9 0.9 0.00 0.00 0.00 53 1012.5
20260507142717 43 286 1.7 1.7 0.00 0.00 0.00 54 1012.4
20260507142214 43 127 0.0 0.9 0.00 0.00 0.00 58 1012.6
20260507141710 42 238 0.9 0.9 0.00 0.00 0.00 58 1012.5
20260507141207 41 133 0.9 0.9 0.00 0.00 0.00 58 1012.5
20260507140703 41 219 1.7 2.6 0.00 0.00 0.00 59 1012.5
20260507140201 41 209 0.9 1.7 0.00 0.00 0.00 59 1012.3
20260507135657 41 172 2.6 2.6 0.00 0.00 0.00 60 1012.5
20260507135155 40 200 1.7 1.7 0.00 0.00 0.00 62 1012.5
20260507134651 41 154 0.9 1.7 0.00 0.00 0.00 62 1012.3
20260507134147 39 73 0.9 0.9 0.00 0.00 0.00 64 1012.1
20260507133643 40 44 0.9 0.9 0.00 0.00 0.00 63 1012.3
20260507133141 39 151 0.9 0.9 0.00 0.00 0.00 61 1012.2
20260507132638 39 79 0.0 0.0 0.00 0.00 0.00 61 1012.3
20260507132134 39 105 0.0 0.0 0.00 0.00 0.00 61 1012.3
20260507131631 39 98 0.0 0.0 0.00 0.00 0.00 61 1012.5
20260507131129 39 103 0.0 0.0 0.00 0.00 0.00 61 1012.3
20260507130625 39 100 0.0 0.0 0.00 0.00 0.00 61 1012.1
20260507130123 39 88 0.0 0.0 0.00 0.00 0.00 61 1012.2
20260507125622 38 82 0.0 0.0 0.00 0.00 0.00 61 1012.1
20260507125119 38 86 0.0 0.0 0.00 0.00 0.00 61 1011.9
20260507124615 39 81 0.0 0.0 0.00 0.00 0.00 60 1012.1
20260507124113 39 74 0.0 0.0 0.00 0.00 0.00 62 1012.2
20260507123611 36 74 0.0 0.0 0.00 0.00 0.00 64 1012.0
20260507123107 33 74 0.0 0.0 0.00 0.00 0.00 68 1012.0
20260507122603 33 74 0.0 0.0 0.00 0.00 0.00 67 1012.1
20260507122059 32 73 0.0 0.0 0.00 0.00 0.00 70 1011.8
20260507121554 30 68 0.0 0.0 0.00 0.00 0.00 70 1011.9
20260507121051 30 85 0.0 0.0 0.00 0.00 0.00 70 1011.8
20260507120547 30 80 0.0 0.0 0.00 0.00 0.00 70 1011.8
20260507120044 30 81 0.0 0.0 0.00 0.00 0.00 70 1011.7
20260507115540 31 75 0.9 0.9 0.00 0.00 0.00 70 1011.5
20260507115036 30 75 0.9 0.9 0.00 0.00 0.00 71 1011.5
20260507114532 30 72 0.9 0.9 0.00 0.00 0.00 72 1011.5
20260507114030 30 73 1.7 1.7 0.00 0.00 0.00 72 1011.5
20260507113527 29 73 0.9 1.7 0.00 0.00 0.00 73 1011.5
20260507113024 29 71 0.9 0.9 0.00 0.00 0.00 72 1011.5
20260507112521 29 69 0.9 1.7 0.00 0.00 0.00 72 1011.4
20260507112018 29 70 0.9 1.7 0.00 0.00 0.00 72 1011.5
20260507111515 29 68 1.7 1.7 0.00 0.00 0.00 72 1011.5
20260507111011 30 75 0.9 1.7 0.00 0.00 0.00 72 1011.5
20260507110508 29 62 0.9 1.7 0.00 0.00 0.00 72 1011.6
20260507110005 29 72 0.9 0.9 0.00 0.00 0.00 73 1011.5
20260507105501 29 75 0.9 0.9 0.00 0.00 0.00 73 1011.7
20260507104958 29 68 0.9 0.9 0.00 0.00 0.00 73 1011.5
20260507104455 29 81 0.0 0.9 0.00 0.00 0.00 73 1011.6
20260507103950 28 82 0.0 0.9 0.00 0.00 0.00 73 1011.7
20260507103447 28 75 0.9 0.9 0.00 0.00 0.00 74 1011.7
20260507102944 27 85 0.0 0.9 0.00 0.00 0.00 74 1011.7
20260507102441 28 86 0.9 0.9 0.00 0.00 0.00 73 1011.8
20260507101937 28 63 0.9 0.9 0.00 0.00 0.00 73 1011.8
20260507101432 28 67 0.9 1.7 0.00 0.00 0.00 72 1011.7
20260507100929 29 63 0.9 0.9 0.00 0.00 0.00 72 1011.7
20260507100426 29 69 1.7 1.7 0.00 0.00 0.00 71 1011.9
20260507095925 29 87 0.0 0.0 0.00 0.00 0.00 71 1012.0
20260507095421 29 58 0.9 1.7 0.00 0.00 0.00 70 1011.9
20260507094919 30 71 1.7 1.7 0.00 0.00 0.00 69 1011.8
20260507094415 30 59 2.6 2.6 0.00 0.00 0.00 69 1011.8
20260507093912 30 58 2.6 2.6 0.00 0.00 0.00 69 1011.8
20260507093410 30 65 2.6 2.6 0.00 0.00 0.00 69 1011.8
20260507092908 30 56 1.7 1.7 0.00 0.00 0.00 69 1011.9
20260507092404 30 58 2.6 2.6 0.00 0.00 0.00 69 1011.7
20260507091901 30 58 2.6 2.6 0.00 0.00 0.00 69 1012.0
20260507091357 30 57 2.6 2.6 0.00 0.00 0.00 69 1011.9
20260507090852 30 79 1.7 1.7 0.00 0.00 0.00 68 1011.9
20260507090349 31 64 1.7 1.7 0.00 0.00 0.00 67 1012.2
20260507085846 32 56 2.6 2.6 0.00 0.00 0.00 66 1011.7
20260507085343 32 56 1.7 1.7 0.00 0.00 0.00 67 1012.0
20260507084840 31 54 0.9 1.7 0.00 0.00 0.00 67 1011.8
20260507084336 31 59 1.7 1.7 0.00 0.00 0.00 68 1011.8
20260507083834 32 59 0.9 0.9 0.00 0.00 0.00 66 1011.7
20260507083330 32 64 1.7 1.7 0.00 0.00 0.00 66 1011.8
20260507082826 32 55 1.7 1.7 0.00 0.00 0.00 66 1011.7
20260507082322 32 61 1.7 1.7 0.00 0.00 0.00 66 1011.6
20260507081820 32 57 1.7 1.7 0.00 0.00 0.00 66 1011.8
20260507081315 32 59 1.7 1.7 0.00 0.00 0.00 67 1011.7
20260507080812 31 56 0.0 0.0 0.00 0.00 0.00 68 1011.8
20260507080309 30 73 0.0 0.0 0.00 0.00 0.00 70 1011.6
20260507075804 28 53 0.0 0.0 0.00 0.00 0.00 72 1011.5
20260507075300 28 82 0.0 0.0 0.00 0.00 0.00 71 1011.8
20260507074757 30 82 0.0 0.0 0.00 0.00 0.00 69 1011.7
20260507074255 30 72 0.0 0.0 0.00 0.00 0.00 69 1011.8
20260507073751 30 71 0.0 0.0 0.00 0.00 0.00 69 1011.7
20260507073248 29 71 0.0 0.0 0.00 0.00 0.00 70 1011.8
20260507072746 28 73 0.0 0.0 0.00 0.00 0.00 70 1011.7
20260507072243 30 73 0.0 0.0 0.00 0.00 0.00 68 1011.7
20260507071740 31 73 0.0 0.0 0.00 0.00 0.00 67 1011.6
20260507071236 32 73 0.0 0.0 0.00 0.00 0.00 65 1011.7
20260507070734 32 67 0.0 0.0 0.00 0.00 0.00 65 1011.8
20260507070230 32 52 0.0 0.0 0.00 0.00 0.00 65 1011.7
20260507065727 32 100 0.0 0.0 0.00 0.00 0.00 65 1011.7
20260507065223 33 158 0.0 0.0 0.00 0.00 0.00 64 1011.9
20260507064721 33 139 0.9 0.9 0.00 0.00 0.00 64 1012.0
20260507064215 34 107 1.7 1.7 0.00 0.00 0.00 62 1011.7
20260507063711 34 88 1.7 1.7 0.00 0.00 0.00 62 1011.8
20260507063208 34 90 1.7 1.7 0.00 0.00 0.00 63 1012.2
20260507062705 34 93 0.9 1.7 0.00 0.00 0.00 62 1011.9
20260507062203 34 127 2.6 2.6 0.00 0.00 0.00 62 1011.9
20260507061700 34 107 1.7 1.7 0.00 0.00 0.00 62 1011.8
20260507061158 34 100 1.7 1.7 0.00 0.00 0.00 63 1011.9
20260507060656 33 96 0.9 1.7 0.00 0.00 0.00 63 1012.0
20260507060152 34 86 0.9 0.9 0.00 0.00 0.00 62 1012.1
20260507055648 34 87 2.6 2.6 0.00 0.00 0.00 62 1011.7
20260507055144 34 89 1.7 1.7 0.00 0.00 0.00 61 1011.9
20260507054640 34 94 2.6 2.6 0.00 0.00 0.00 61 1012.0
20260507054137 35 73 2.6 2.6 0.00 0.00 0.00 61 1012.0
20260507053635 35 103 2.6 2.6 0.00 0.00 0.00 61 1012.0
20260507053133 35 101 2.6 2.6 0.00 0.00 0.00 61 1012.0
20260507052631 35 101 2.6 2.6 0.00 0.00 0.00 60 1012.1
20260507052127 35 99 2.6 2.6 0.00 0.00 0.00 60 1012.0
20260507051624 36 105 2.6 2.6 0.00 0.00 0.00 59 1012.0
20260507051121 36 110 2.6 2.6 0.00 0.00 0.00 58 1011.9
20260507050618 36 116 3.5 4.3 0.00 0.00 0.00 58 1012.1
20260507050115 36 110 2.6 2.6 0.00 0.00 0.00 58 1012.0
20260507045612 36 95 2.6 2.6 0.00 0.00 0.00 58 1012.1
20260507045108 36 87 2.6 2.6 0.00 0.00 0.00 58 1012.2
20260507044605 36 101 3.5 5.2 0.00 0.00 0.00 57 1012.4
20260507044102 37 95 3.5 4.3 0.00 0.00 0.00 56 1012.3
20260507043557 37 140 4.3 4.3 0.00 0.00 0.00 55 1012.4
20260507043055 38 77 2.6 4.3 0.00 0.00 0.00 54 1012.2
20260507042551 39 76 3.5 4.3 0.00 0.00 0.00 54 1012.4
20260507042047 38 74 3.5 4.3 0.00 0.00 0.00 54 1012.3
20260507041544 38 82 1.7 2.6 0.00 0.00 0.00 55 1012.3
20260507041041 38 83 2.6 2.6 0.00 0.00 0.00 54 1012.3
20260507040537 38 64 2.6 2.6 0.00 0.00 0.00 54 1012.5
20260507040033 39 75 2.6 2.6 0.00 0.00 0.00 51 1012.4
20260507035530 39 70 2.6 2.6 0.00 0.00 0.00 51 1012.6
20260507035026 39 71 2.6 2.6 0.00 0.00 0.00 51 1012.4
20260507034523 40 73 2.6 4.3 0.00 0.00 0.00 50 1012.6
20260507034021 40 62 3.5 4.3 0.00 0.00 0.00 50 1012.6
20260507033519 40 62 2.6 2.6 0.00 0.00 0.00 50 1012.9
20260507033016 40 69 2.6 2.6 0.00 0.00 0.00 50 1012.5
20260507032512 40 65 1.7 2.6 0.00 0.00 0.00 50 1012.9
20260507032009 40 71 2.6 2.6 0.00 0.00 0.00 50 1012.6
20260507031505 41 56 2.6 2.6 0.00 0.00 0.00 49 1012.6
20260507031003 41 64 2.6 4.3 0.00 0.00 0.00 49 1012.5
20260507030459 41 72 2.6 2.6 0.00 0.00 0.00 49 1012.6
20260507025956 41 60 2.6 2.6 0.00 0.00 0.00 49 1012.7
20260507025453 42 58 2.6 2.6 0.00 0.00 0.00 48 1012.9
20260507024951 42 57 2.6 2.6 0.00 0.00 0.00 48 1012.9
20260507024448 42 54 1.7 1.7 0.00 0.00 0.00 47 1012.7
20260507023944 42 49 2.6 4.3 0.00 0.00 0.00 47 1012.7
20260507023441 43 59 1.7 1.7 0.00 0.00 0.00 47 1012.6
20260507022938 43 58 1.7 1.7 0.00 0.00 0.00 46 1012.5
20260507022436 43 56 2.6 2.6 0.00 0.00 0.00 46 1012.9
20260507021931 44 49 2.6 2.6 0.00 0.00 0.00 45 1012.6
20260507021426 44 56 1.7 1.7 0.00 0.00 0.00 45 1012.6
20260507020924 44 59 1.7 1.7 0.00 0.00 0.00 44 1012.9
20260507020421 45 52 1.7 1.7 0.00 0.00 0.00 43 1012.7
20260507015918 45 51 0.9 1.7 0.00 0.00 0.00 44 1012.9
20260507015416 45 44 0.9 1.7 0.00 0.00 0.00 43 1012.5
20260507014913 46 52 0.9 0.9 0.00 0.00 0.00 43 1012.7
20260507014409 46 46 0.9 0.9 0.00 0.00 0.00 43 1012.5
20260507013905 46 48 1.7 2.6 0.00 0.00 0.00 42 1012.6
20260507013402 47 11 1.7 1.7 0.00 0.00 0.00 42 1012.5
20260507012859 47 25 0.0 0.0 0.00 0.00 0.00 42 1012.7
20260507012355 48 16 2.6 2.6 0.00 0.00 0.00 42 1012.6
20260507011847 48 341 3.5 4.3 0.00 0.00 0.00 41 1012.6
20260507011344 48 348 3.5 4.3 0.00 0.00 0.00 41 1012.7
20260507010838 49 34 0.9 1.7 0.00 0.00 0.00 40 1012.5
20260507010334 49 2 5.2 6.1 0.00 0.00 0.00 39 1012.9
20260507005831 49 7 4.3 5.2 0.00 0.00 0.00 38 1012.6
20260507005328 50 353 3.5 4.3 0.00 0.00 0.00 38 1012.7
20260507004824 50 335 4.3 6.1 0.00 0.00 0.00 38 1012.9
20260507004322 50 340 5.2 7.0 0.00 0.00 0.00 38 1013.0
20260507003819 50 29 4.3 5.2 0.00 0.00 0.00 38 1012.9
20260507003314 50 4 3.5 4.3 0.00 0.00 0.00 38 1013.1
20260507002809 51 349 5.2 7.0 0.00 0.00 0.00 37 1012.6
20260507002306 51 288 4.3 4.3 0.00 0.00 0.00 37 1012.9
20260507001757 51 355 5.2 7.0 0.00 0.00 0.00 37 1012.5
20260507001255 52 321 3.5 5.2 0.00 0.00 0.00 36 1012.9
20260507000751 51 319 6.1 7.0 0.00 0.00 0.00 37 1013.2
20260507000246 52 344 7.8 9.6 0.00 0.00 0.00 37 1013.2
20260506235743 50 300 3.5 4.3 0.00 0.00 0.00 38 1013.1
20260506235239 49 297 4.3 5.2 0.00 0.00 0.00 39 1013.1
20260506234736 50 344 2.6 4.3 0.00 0.00 0.00 39 1013.1
20260506234233 50 316 5.2 7.0 0.00 0.00 0.00 37 1013.2
20260506233731 50 331 7.0 7.8 0.00 0.00 0.00 38 1013.3
20260506233227 51 7 8.7 11.3 0.00 0.00 0.00 36 1013.3
20260506232724 50 335 4.3 5.2 0.00 0.00 0.00 39 1013.5
20260506232218 50 319 5.2 6.1 0.00 0.00 0.00 38 1013.3
20260506231716 51 288 5.2 7.0 0.00 0.00 0.00 39 1013.5
20260506231214 50 299 6.1 7.0 0.00 0.00 0.00 39 1013.4
20260506230710 50 330 4.3 6.1 0.00 0.00 0.00 41 1013.5
20260506230208 51 303 5.2 7.0 0.00 0.00 0.00 39 1013.5
20260506225704 50 305 7.0 7.8 0.00 0.00 0.00 38 1013.4
20260506225201 51 335 9.6 9.6 0.00 0.00 0.00 36 1013.8
20260506224657 50 320 3.5 4.3 0.00 0.00 0.00 40 1013.6
20260506224155 51 296 6.1 6.1 0.00 0.00 0.00 38 1013.6
20260506223651 52 272 7.0 7.8 0.00 0.00 0.00 38 1013.7
20260506223146 52 357 1.7 1.7 0.00 0.00 0.00 36 1013.7
20260506222644 51 22 6.1 7.8 0.00 0.00 0.00 39 1013.6
20260506222139 50 287 4.3 5.2 0.00 0.00 0.00 39 1013.6
20260506221638 52 301 8.7 11.3 0.00 0.00 0.00 38 1013.8
20260506221136 50 310 4.3 5.2 0.00 0.00 0.00 40 1013.7
20260506220632 51 308 4.3 6.1 0.00 0.00 0.00 41 1014.2
20260506220127 51 326 8.7 9.6 0.00 0.00 0.00 41 1013.9
20260506215624 52 254 7.0 9.6 0.00 0.00 0.00 39 1014.0
20260506215119 51 337 5.2 6.1 0.00 0.00 0.00 38 1014.1
20260506214616 49 338 3.5 4.3 0.00 0.00 0.00 42 1014.2
20260506214114 52 326 6.1 8.7 0.00 0.00 0.00 41 1014.3
20260506213612 51 305 1.7 1.7 0.00 0.00 0.00 45 1014.0
20260506213109 50 289 6.1 7.0 0.00 0.00 0.00 42 1014.3
20260506212606 49 292 6.1 7.0 0.00 0.00 0.00 43 1014.3
20260506212101 50 295 7.0 7.0 0.00 0.00 0.00 42 1014.4
20260506211556 49 297 6.1 7.0 0.00 0.00 0.00 44 1014.8
20260506211048 50 285 6.1 8.7 0.00 0.00 0.00 42 1014.5
20260506210545 48 298 8.7 11.3 0.00 0.00 0.00 42 1014.6
20260506210041 49 328 6.1 7.0 0.00 0.00 0.00 44 1014.8
20260506205538 49 289 6.1 7.0 0.00 0.00 0.00 43 1014.9
20260506205033 47 267 7.8 11.3 0.00 0.00 0.00 44 1014.9
20260506204532 47 300 7.0 7.8 0.00 0.00 0.00 45 1014.9
20260506204028 48 309 4.3 5.2 0.00 0.00 0.00 43 1015.1
20260506203527 49 291 7.0 7.8 0.00 0.00 0.00 42 1015.0
20260506203023 51 313 6.1 9.6 0.00 0.00 0.00 43 1015.3
20260506202520 52 296 3.5 6.1 0.00 0.00 0.00 42 1015.3
20260506202016 50 314 5.2 7.8 0.00 0.00 0.00 43 1015.4
20260506201515 49 293 6.1 7.8 0.00 0.00 0.00 45 1015.4
20260506201011 48 312 6.1 7.0 0.00 0.00 0.00 46 1015.4
20260506200507 47 327 1.7 1.7 0.00 0.00 0.00 44 1015.3
20260506200004 48 252 5.2 6.1 0.00 0.00 0.00 46 1015.4
20260506195500 47 329 5.2 7.0 0.00 0.00 0.00 47 1015.5
20260506194956 46 346 6.1 7.0 0.00 0.00 0.00 47 1015.8
20260506194454 47 295 4.3 5.2 0.00 0.00 0.00 46 1015.5
20260506193945 47 319 3.5 5.2 0.00 0.00 0.00 47 1015.9
20260506193442 48 358 5.2 6.1 0.00 0.00 0.00 46 1015.6
20260506192939 47 335 4.3 6.1 0.00 0.00 0.00 51 1016.1
20260506192436 47 108 1.7 1.7 0.00 0.00 0.00 47 1015.9
20260506191932 46 300 7.0 8.7 0.00 0.00 0.00 47 1015.9
20260506191429 47 275 5.2 7.0 0.00 0.00 0.00 48 1016.1
20260506190926 45 357 2.6 2.6 0.00 0.00 0.00 48 1016.1
20260506190422 46 351 6.1 7.8 0.00 0.00 0.00 47 1016.2
20260506185919 48 310 5.2 7.8 0.00 0.00 0.00 49 1016.2
20260506185417 48 347 7.0 9.6 0.00 0.00 0.00 50 1016.1
20260506184914 47 293 4.3 5.2 0.00 0.00 0.00 50 1016.3
20260506184410 44 23 4.3 6.1 0.00 0.00 0.00 49 1016.4
20260506183908 46 342 3.5 5.2 0.00 0.00 0.00 49 1016.7
20260506183403 45 352 7.8 11.3 0.00 0.00 0.00 50 1016.7
20260506182900 46 316 7.0 9.6 0.00 0.00 0.00 49 1016.9
20260506182357 46 281 5.2 7.0 0.00 0.00 0.00 52 1016.8
20260506181854 45 296 4.3 6.1 0.00 0.00 0.00 50 1016.9
20260506181353 45 315 3.5 5.2 0.00 0.00 0.00 56 1016.9
20260506180849 44 333 1.7 1.7 0.00 0.00 0.00 50 1017.1
20260506180345 44 301 6.1 7.0 0.00 0.00 0.00 50 1017.1
20260506175843 45 303 1.7 1.7 0.00 0.00 0.00 49 1017.2
20260506175339 44 291 6.1 7.0 0.00 0.00 0.00 49 1017.2
20260506174836 45 305 6.1 6.1 0.00 0.00 0.00 49 1017.1
20260506174333 44 259 3.5 4.3 0.00 0.00 0.00 50 1017.2
20260506173831 44 272 3.5 4.3 0.00 0.00 0.00 50 1017.4
20260506173327 44 346 2.6 2.6 0.00 0.00 0.00 51 1017.3
20260506172825 43 348 3.5 4.3 0.00 0.00 0.00 50 1017.5
20260506172321 43 269 4.3 5.2 0.00 0.00 0.00 52 1017.7
20260506171819 43 283 9.6 9.6 0.00 0.00 0.00 50 1017.6
20260506171316 43 290 5.2 6.1 0.00 0.00 0.00 49 1017.7
20260506170813 43 345 7.8 8.7 0.00 0.00 0.00 51 1017.6
20260506170309 42 333 6.1 7.0 0.00 0.00 0.00 51 1017.7
20260506165808 42 336 2.6 2.6 0.00 0.00 0.00 50 1017.9
20260506165306 42 328 5.2 6.1 0.00 0.00 0.00 51 1017.7
20260506164802 42 345 6.1 7.0 0.00 0.00 0.00 51 1017.9
20260506164259 42 303 3.5 4.3 0.00 0.00 0.00 51 1018.0
20260506163755 42 359 7.0 8.7 0.00 0.00 0.00 52 1017.9
20260506163250 42 295 4.3 5.2 0.00 0.00 0.00 51 1018.0
20260506162746 42 298 4.3 5.2 0.00 0.00 0.00 52 1018.0
20260506162244 42 250 3.5 4.3 0.00 0.00 0.00 52 1018.2
20260506161742 41 348 3.5 4.3 0.00 0.00 0.00 55 1018.1
20260506161239 41 12 2.6 2.6 0.00 0.00 0.00 54 1018.2
20260506160736 41 293 4.3 6.1 0.00 0.00 0.00 53 1018.1
20260506160233 40 307 6.1 7.0 0.00 0.00 0.00 54 1018.1
20260506155731 41 348 2.6 2.6 0.00 0.00 0.00 53 1018.1
20260506155228 41 306 5.2 6.1 0.00 0.00 0.00 54 1018.3
20260506153335 39 310 4.3 5.2 0.00 0.00 0.00 53 1018.2
20260506152832 41 273 4.3 5.2 0.00 0.00 0.00 53 1018.1
20260506152329 42 197 0.9 0.9 0.00 0.00 0.00 54 1018.2
20260506151828 41 16 2.6 4.3 0.00 0.00 0.00 54 1018.2
20260506151324 39 324 2.6 4.3 0.00 0.00 0.00 55 1018.5
20260506150821 39 252 2.6 2.6 0.00 0.00 0.00 54 1018.3
20260506150318 40 354 1.7 2.6 0.00 0.00 0.00 54 1018.5
20260506145815 39 298 2.6 2.6 0.00 0.00 0.00 54 1018.3
20260506145311 40 245 3.5 4.3 0.00 0.00 0.00 57 1018.3
20260506144809 40 321 3.5 4.3 0.00 0.00 0.00 57 1018.6